loading
|

THOR ABLESTAR R/B, 118

Orbit data source: Space-Track

THOR ABLESTAR R/B, 118 is space debris in LEO originally from a launch on Thu, 29 Jun 1961 UTC launched from the Air Force Eastern Test Range (AFETR). Debris objects in space refer to the collection of defunct objects orbiting the Earth. Examples of debris include non-operational satellites, rocket bodies, and fragments generated from explosions, collisions, or faulty payload assembly.

Loading next visibility...
Loading greatness...
THOR ABLESTAR R/B details
Identifier
118, 1961-015C
Orbit
LEO
Last TLE update13 hours ago
Origin
Flag of USUSAF SSD (US)
ManufacturerAerojet
Mission statusUnknown
MissionUnknown
Bus & MotorABLESTAR, Unknown motor
Mass~600 kg wet, 600 kg dry
Launch date (UTC)
1961-06-29 (63 years ago)
Launch vehicleUnknown
Launch site
Air Force Eastern Test Range (AFETR)
Object type
Payload
Rocket body
Debris
Radar Cross Section1.7 m², Large (>1 m²)

Expand to show TLE details & history

TLE from 13 hours ago
0 THOR ABLESTAR R/B
1   118U 61015C   24251.16834128  .00001021  00000-0  69658-3 0  9991
2   118  66.7617 236.5917 0081204   3.1636 356.9945 14.02283806225781
Epoch: 2024-09-07T04:02Z
Definitive object data (Epoch: 2024-09-07T04:02:24.686Z)
Latitude0.00002°
Longitude-170.74155°
Altitude829.071 km
Speed7.469 km/s
True Right ascension15h 46m 22s
True Declination0° 00' 00"
Sunlit
Object was in daylight at TLE epoch
Predictive object data (real-time)
Latitude-36.73072°
Longitude26.49261°
Altitude945.56 km
Speed7.355 km/s
Apparent Right ascension01h 36m 52s
Apparent Declination-55° 28' 03"
Sunlit
Object is in daylight
Predictive observer data (real-time)
Local Sidereal Time09:12:54
Azimuth226.943° WSW
Elevation-44.869°
Doppler factor1
Orbital elements
Apogee943.26 km
Perigee825.313 km
Semi-major axis7,262.423 km
Eccentricity0.0081204
Inclination66.7617°
RAAN236.5917°
Arg. of periapsis3.1636°
True anomaly356.94521°
Mean anomaly356.9945°
Eccentric anomaly356.96991°
Mean motion3.50688 °/min
BSTAR0.00069658
Period102.66 mins
No data available

THOR ABLESTAR R/B Visibility forecast

Observer location: 39.9160978°, -105.1181434

THOR ABLESTAR R/B is not visible in the next 10 days
Span
Click to sort rows by Start time (UTC) header in descending order
Start Az.
Max El. time (UTC)
Max El. Az.
Max El.
End time (UTC)
End Az.